Regional Weather Roundup
Issued by NWS

Home | Current Version | Previous Version | Graphics & Text | Print | Product List | Glossary Off
Versions: 1 2 3 4 5 6 7 8 9 10 11 12 13 14 15 16 17 18 19 20 21 22 23 24 25 26 27 28 29 30 31 32 33 34 35 36 37 38 39 40 41 42 43 44 45 46 47 48 49 50

000
ASUS43 KLSX 011359
RWRMO

WEATHER SUMMARY FOR MISSOURI
NATIONAL WEATHER SERVICE SPRINGFIELD MO
800 AM CST SUN FEB 01 2015

NOTE: "FAIR" INDICATES FEW OR NO CLOUDS BELOW 12,000 FEET WITH NO
       SIGNIFICANT WEATHER AND/OR OBSTRUCTIONS TO VISIBILITY.
       CURRENT SKY AND/OR WEATHER CONDITIONS ARE NOT AVAILABLE FOR
       CHILLICOTHE AND FARMINGTON.

MOZ001>031-035>038-043-044-053-054-011500-
...NORTHERN AND WESTERN MISSOURI...

CITY           SKY/WX    TMP DP  RH WIND       PRES   REMARKS
KANSAS CTY INT SNOW      32  32 100 NW3       29.72R VSB 1/4
KANSAS C DTWN  LGT RAIN  34  33  96 NW3       29.73R
LEE`S SUMMIT   LGT RAIN  33  32  96 N5        29.71S VSB 3/4 WCI  29
ST JOSEPH      LGT SNOW  32  32 100 NW7       29.76R FOG     WCI  26
CHILLICOTHE      N/A     33  32  96 CALM      29.74S
KIRKSVILLE     SNOW      33  33 100 E3        29.73F VSB 1/2

$$
MOZ066>068-077>081-088>096-101>105-011500-
...SOUTHWEST MISSOURI...

CITY           SKY/WX    TMP DP  RH WIND       PRES   REMARKS
SPRINGFIELD    LGT RAIN  39  38  96 S8        29.71F FOG
JOPLIN         LGT RAIN  43  41  93 SW13      29.74S FOG

$$
MOZ032>034-039>042-045>050-055>058-069>072-011500-
...CENTRAL MISSOURI...

CITY           SKY/WX    TMP DP  RH WIND       PRES   REMARKS
COLUMBIA       CLOUDY    34  33  96 SE7       29.71F FOG     WCI  28
JEFFERSON CITY CLOUDY    35  34  96 E7        29.73F FOG     WCI  29
ROLLA          CLOUDY    35  34  96 SE8       29.71F FOG     WCI  29
SEDALIA        LGT RAIN  34  34 100 S5        29.72F FOG     WCI  30
OSAGE BEACH    CLOUDY    37  36  93 S6        29.72F

$$
MOZ051-052-059>065-011500-
...EAST CENTRAL MISSOURI...

CITY           SKY/WX    TMP DP  RH WIND       PRES   REMARKS
ST LOUIS INTL  LGT RAIN  37  33  85 SE9       29.78F FOG
SPIRIT OF STL  CLOUDY    35  33  92 SE5       29.77F FOG
ST CHARLES     CLOUDY    35  34  96 SE8       29.77F FOG     WCI  29

$$
MOZ072>076-082>087-097>100-106>115-011500-
...SOUTH CENTRAL AND SOUTHEAST MISSOURI...

CITY           SKY/WX    TMP DP  RH WIND       PRES   REMARKS
CAPE GIRARDEAU RAIN      41  40  96 SW7       29.82R FOG
FARMINGTON     CLOUDY    37  36  93 S7        29.80F
POPLAR BLUFF   LGT RAIN  42  40  92 SW5       29.80S FOG
WEST PLAINS    CLOUDY    41  39  93 SW6       29.75F FOG

$$



USA.gov is the U.S. government's official web portal to all federal, state and local government web resources and services.